"TOA5","AWS1","CR1000","7964","CR1000.Std.14","CPU:AWS1_114.CR1","64363","TBL110"
"TIMESTAMP","RECORD","Wind_spd_WVc(1)","Wind_spd_WVc(2)","Air_Temp_Avg","Humidity_Avg","SW_upper_Wm2_Avg","Rain_Tot","Press_Avg","Issui_Tot","Depth_cm","SR50A_Raw","Quality","Ground_Temp_Avg(1)","Ground_Temp_Avg(2)","SW_lower_Wm2_Avg","Albedo_Avg","SWC_per(1)","SWC_per(2)","Period(1)","Period(2)"
"TS","RN","","","","","","","","","","","","","","","","","","",""
"","","WVc","WVc","Avg","Avg","Avg","Tot","Avg","Tot","Smp","Smp","Smp","Avg","Avg","Avg","Avg","Smp","Smp","Smp","Smp"
"2017-11-18 00:00:00",314989,0.659,140.6,2.592,44.93,0.003932969,0,865.5627,0,5.465,3.111,340,4.955,6.212,0.3716288,0.048,52.1,59.61,33.81,35.59
"2017-11-18 00:10:00",314990,0.835,128.4,2.44,45.66,0,0,865.2971,0,4.588,3.119,286,4.955,6.194,0,0,52.1,59.61,33.81,35.59
"2017-11-18 00:20:00",314991,1.353,144,2.835,39.58,0,0,864.9641,0,3.109,3.132,250,4.982,6.182,0.02654491,0,52.1,59.61,33.81,35.59
"2017-11-18 00:30:00",314992,1.419,144.8,3.027,37.23,0,0,864.7006,0,1.752,3.145,196,4.994,6.174,0,0,52.05,59.61,33.8,35.59
"2017-11-18 00:40:00",314993,1.384,149.6,3.302,34.05,0,0,864.6164,0,1.102,3.149,185,5.006,6.145,0,0,52.05,59.61,33.8,35.59
"2017-11-18 00:50:00",314994,1.201,145.3,3.48,33.68,0,0,864.4056,0,318,0,0,5.006,6.134,0,0,52.05,59.56,33.8,35.58
"2017-11-18 01:00:00",314995,0.592,65.53,3.249,36.92,0,0,864.5553,0,8.03,3.083,515,5.006,6.132,0,0,52.05,59.61,33.8,35.59
"2017-11-18 01:10:00",314996,0.691,324.7,2.441,46.2,0,0,864.494,0,1.34,3.159,193,5.006,6.132,0,0,52.05,59.56,33.8,35.58
"2017-11-18 01:20:00",314997,0.343,22.82,1.293,54.08,0,0,864.3526,0,2.143,3.15,187,5.006,6.138,0,0,52.1,59.56,33.81,35.58
"2017-11-18 01:30:00",314998,0.431,124.5,1.505,53.71,0,0,864.068,0,2.393,3.148,202,5.006,6.166,0,0,52.05,59.56,33.8,35.58
"2017-11-18 01:40:00",314999,0.62,124.5,1.538,52.99,0,0,864.0131,0,2.544,3.146,210,5.007,6.182,0,0,52.05,59.61,33.8,35.59
"2017-11-18 01:50:00",315000,0.563,101.4,1.849,50.58,0,0,864.0677,0,1.947,3.148,196,5.001,6.187,0.09480325,0,52.05,59.61,33.8,35.59
"2017-11-18 02:00:00",315001,0.43,121.8,1.991,50.28,0,0,864.0075,0,318,0,0,4.991,6.178,0.06067409,0,52.05,59.61,33.8,35.59
"2017-11-18 02:10:00",315002,0.394,81.9,2.505,47.37,0,0,864.0151,0,8.56,3.079,384,4.993,6.181,0.3223311,0,52.05,59.56,33.8,35.58
"2017-11-18 02:20:00",315003,0.597,123.7,2.644,48.73,0,0,863.8102,0,8.37,3.083,344,4.996,6.175,0.2237357,0,52.05,59.61,33.8,35.59
"2017-11-18 02:30:00",315004,0.977,140.9,2.704,51.07,0,0,863.2864,0,7.983,3.084,498,4.996,6.17,0.09480325,0,52.05,59.56,33.8,35.58
"2017-11-18 02:40:00",315005,0.794,150.9,3.154,50.9,0,0,863.0107,0,7.998,3.08,349,5.004,6.152,0.2009829,0,52.05,59.56,33.8,35.58
"2017-11-18 02:50:00",315006,0.469,131.6,3.413,50.54,0,0,863.1383,0,8.14,3.08,315,5.006,6.136,0.04171343,0,52.05,59.56,33.8,35.58
"2017-11-18 03:00:00",315007,0.836,148,3.12,51.92,0,0,862.8504,0,8.28,3.081,275,5.006,6.134,0,0,52.05,59.56,33.8,35.58
"2017-11-18 03:10:00",315008,0.742,148.8,2.904,53.74,0,0,862.897,0,8.79,3.076,276,5.006,6.133,0,0,52.05,59.56,33.8,35.58
"2017-11-18 03:20:00",315009,0.666,129,2.769,56.91,0,0,862.7755,0,8.23,3.082,280,5.006,6.132,0,0,52.05,59.61,33.8,35.59
"2017-11-18 03:30:00",315010,0.879,140.1,2.828,61.56,0,0,862.6913,0,9.19,3.071,273,5.006,6.132,0.01137631,0,52.05,59.56,33.8,35.58
"2017-11-18 03:40:00",315011,1.288,158.3,3.134,65.68,0,0,862.4672,0,7.086,3.091,454,5.003,6.129,0.003792105,0,52.05,59.56,33.8,35.58
"2017-11-18 03:50:00",315012,1.263,148.1,3.383,69.21,0,0,862.238,0,7.05,3.09,300,4.997,6.123,0,0,52.05,59.56,33.8,35.58
"2017-11-18 04:00:00",315013,1.006,146.4,3.588,70.28,0,0,862.366,0,6.408,3.095,288,4.982,6.108,0,0,52.05,59.56,33.8,35.58
"2017-11-18 04:10:00",315014,1.133,161.5,3.702,69.95,0,0,862.2247,0,4.731,3.112,260,4.967,6.092,0,0,52.05,59.56,33.8,35.58
"2017-11-18 04:20:00",315015,0.808,140.3,3.48,70.16,0,0,862.1721,0,5.316,3.108,284,4.945,6.071,0,0,51.99,59.56,33.79,35.58
"2017-11-18 04:30:00",315016,0.632,141.1,3.339,73.98,0,0,862.4059,0,4.615,3.116,330,4.93,6.056,0,0,52.05,59.56,33.8,35.58
"2017-11-18 04:40:00",315017,0.636,141,3.079,78.03,0,0,862.4164,0,1.324,3.149,204,4.924,6.049,0,0,52.05,59.56,33.8,35.58
"2017-11-18 04:50:00",315018,0.74,149.3,3.053,80.5,0,0,862.1552,0,-0.159,3.165,195,4.919,6.045,0.00379089,0,51.99,59.56,33.79,35.58
"2017-11-18 05:00:00",315019,0.79,138.2,2.799,83.3,0,0,862.309,0,-28.89,3.453,205,4.917,6.043,0,0,51.99,59.56,33.79,35.58
"2017-11-18 05:10:00",315020,0.886,143.4,2.427,86.5,0,0,862.2585,0,8.22,3.085,249,4.917,6.042,0,0,52.05,59.56,33.8,35.58
"2017-11-18 05:20:00",315021,0.858,146.6,2.226,88.2,0,0,861.8771,0,9.8,3.07,270,4.917,6.042,0.007581679,0,52.05,59.5,33.8,35.56
"2017-11-18 05:30:00",315022,1.253,157.5,2.048,90.2,0,0,861.6053,0,1.244,3.156,194,4.917,6.043,0.003790839,0,52.05,59.56,33.8,35.58
"2017-11-18 05:40:00",315023,1.159,144.5,2.02,91.3,0,0.5,861.6517,0,0.943,3.159,184,4.917,6.046,0.03790839,0,51.99,59.56,33.79,35.58
"2017-11-18 05:50:00",315024,1.18,145.2,2.174,91.5,0,0,861.5126,0,-28.27,3.449,194,4.917,6.053,0.2312412,0,52.05,59.56,33.8,35.58
"2017-11-18 06:00:00",315025,1.36,151.3,2.286,91.3,0,0,861.4662,0,9.81,3.069,289,4.917,6.056,0.07960761,0,52.05,59.56,33.8,35.58
"2017-11-18 06:10:00",315026,1.212,156.6,2.199,91.7,0,0,861.401,0.5,10.18,3.066,290,4.917,6.069,0,0,52.05,59.5,33.8,35.56
"2017-11-18 06:20:00",315027,0.886,150.9,2.21,92,0,0.5,861.5126,0,10.88,3.059,290,4.92,6.086,0.05686332,0,51.99,59.5,33.79,35.56
"2017-11-18 06:30:00",315028,0.747,155.5,2.148,92.8,0,0,861.7465,0,-28.45,3.451,201,4.915,6.099,0.2236637,0,52.05,59.5,33.8,35.56
"2017-11-18 06:40:00",315029,0.754,149,2.04,93.6,0.1061566,0.5,861.8792,0,10.88,3.06,297,4.928,6.12,0.3790943,0.434,51.99,59.56,33.79,35.58
"2017-11-18 06:50:00",315030,0.912,157.3,2.014,94.2,0.9318196,0,861.7002,0.5,12.18,3.047,270,4.921,6.122,0.576222,0.689,51.99,59.56,33.79,35.58
"2017-11-18 07:00:00",315031,1.115,164.3,2.032,94.2,2.701087,0,861.6496,0,10.58,3.063,276,4.925,6.131,1.099366,0.439,52.05,59.5,33.8,35.56
"2017-11-18 07:10:00",315032,0.775,146.4,1.996,94.8,3.404846,0.5,861.6749,0.5,9.77,3.071,264,4.914,6.126,1.129688,0.334,51.99,59.5,33.79,35.56
"2017-11-18 07:20:00",315033,0.883,154.8,1.939,95.1,5.028608,0.5,861.6602,0,9.87,3.07,274,4.874,6.127,1.486025,0.296,52.05,59.5,33.8,35.56
"2017-11-18 07:30:00",315034,1.019,153,2.008,95.6,5.98412,0,861.6833,0.5,10.37,3.065,254,4.884,6.133,1.558082,0.26,52.05,59.5,33.8,35.56
"2017-11-18 07:40:00",315035,0.734,153.4,1.971,96.4,5.40222,0,861.5842,0,9.77,3.071,301,4.882,6.135,1.455725,0.272,51.99,59.56,33.79,35.58
"2017-11-18 07:50:00",315036,0.917,156.4,1.974,97,8.881918,0.5,861.3714,0,10.87,3.06,264,4.877,6.137,2.179822,0.247,52.05,59.56,33.8,35.58
"2017-11-18 08:00:00",315037,1.181,149.5,2.008,96.9,14.39434,0,861.127,0.5,9.47,3.074,289,4.887,6.139,3.229939,0.225,52.1,59.5,33.81,35.56
"2017-11-18 08:10:00",315038,0.806,148.8,1.979,96.6,15.8685,0.5,860.929,0,10.62,3.063,279,4.883,6.134,3.396687,0.215,52.1,59.5,33.81,35.56
"2017-11-18 08:20:00",315039,0.928,151.7,2.043,96,12.75084,0,860.9753,0,10.77,3.061,269,4.888,6.139,2.809136,0.22,52.16,59.5,33.83,35.56
"2017-11-18 08:30:00",315040,0.748,143.5,1.962,96.3,14.87826,0,861.0511,0.5,9.56,3.073,319,4.902,6.144,3.180722,0.214,52.16,59.56,33.83,35.58
"2017-11-18 08:40:00",315041,1.01,135.1,1.932,96.7,18.47205,0.5,860.8258,0,9.82,3.071,273,4.848,6.142,3.829008,0.207,52.21,59.56,33.84,35.58
"2017-11-18 08:50:00",315042,0.912,147.4,1.969,96.4,20.79906,0,860.7309,0.5,9.62,3.073,320,4.836,6.136,4.295174,0.207,52.32,59.56,33.87,35.58
"2017-11-18 09:00:00",315043,0.793,155.1,1.862,95.9,19.10034,0.5,860.7626,0,9.62,3.074,344,4.837,6.133,4.355783,0.229,52.38,59.56,33.88,35.58
"2017-11-18 09:10:00",315044,0.641,152.8,1.69,96.4,26.51239,0.5,860.556,0.5,9.2,3.079,321,4.844,6.128,5.443933,0.206,52.44,59.61,33.89,35.59
"2017-11-18 09:20:00",315045,0.793,158.4,1.637,97,28.5144,0,860.4254,0.5,8.91,3.081,301,4.851,6.13,5.762525,0.202,52.55,59.61,33.92,35.59
"2017-11-18 09:30:00",315046,0.546,147,1.763,97.2,31.34991,0.5,860.4128,0,9.15,3.079,322,4.855,6.112,6.07351,0.194,52.66,59.67,33.95,35.6
"2017-11-18 09:40:00",315047,0.704,138.7,1.693,97.5,29.73849,0,860.4991,0.5,-29.47,3.464,317,4.862,6.081,5.599741,0.188,52.77,59.67,33.98,35.6
"2017-11-18 09:50:00",315048,0.955,155.3,1.754,97.4,24.95719,0.5,860.7499,0,9.13,3.079,296,4.853,6.096,4.924919,0.198,52.88,59.73,34,35.62
"2017-11-18 10:00:00",315049,1.031,152.4,1.74,97.8,27.86597,0.5,860.5455,0.5,9.01,3.08,298,4.827,6.052,5.368309,0.193,53,59.79,34.03,35.63
"2017-11-18 10:10:00",315050,0.882,151.9,1.794,98.1,30.28301,0,860.2822,0,9.31,3.076,281,4.812,6.005,5.54629,0.184,53.11,59.79,34.06,35.63
"2017-11-18 10:20:00",315051,0.942,151.2,1.878,98,28.52553,0.5,860.0082,0.5,9.76,3.072,286,4.758,5.984,5.129285,0.18,53.16,59.85,34.07,35.64
"2017-11-18 10:30:00",315052,0.659,148,1.884,97.3,29.76394,0.5,859.7786,0.5,10.24,3.067,360,4.757,5.977,5.478038,0.185,53.28,59.97,34.1,35.67
"2017-11-18 10:40:00",315053,1.077,148.7,1.893,97,34.04986,0,859.6649,0,9.92,3.07,298,4.759,5.972,5.948167,0.175,53.39,60.09,34.13,35.7
"2017-11-18 10:50:00",315054,1.067,151.3,2.03,96.8,36.69524,0.5,859.4647,0.5,-29.27,3.46,236,4.753,5.968,6.349889,0.173,53.45,60.15,34.14,35.71
"2017-11-18 11:00:00",315055,0.968,157.5,2.103,96.4,33.72603,0,859.4247,0,10.73,3.061,310,4.747,5.959,5.769745,0.171,53.56,60.21,34.17,35.73
"2017-11-18 11:10:00",315056,0.846,153.7,2.093,96.2,30.3843,0.5,859.2266,0.5,9.97,3.069,360,4.748,5.961,5.178399,0.171,53.67,60.33,34.19,35.75
"2017-11-18 11:20:00",315057,0.63,143.8,2.042,96.5,30.31423,0,859.0391,0,-29.6,3.463,197,4.779,5.967,5.140609,0.17,53.73,60.44,34.21,35.78
"2017-11-18 11:30:00",315058,0.584,149.6,2.046,96.9,30.05037,0.5,859.3446,0.5,9.42,3.074,403,4.794,5.963,5.019225,0.167,53.84,60.5,34.23,35.79
"2017-11-18 11:40:00",315059,0.54,156.2,2.024,97.6,34.45345,0.5,858.9379,0.5,10.27,3.066,304,4.686,5.96,5.591581,0.162,53.95,60.68,34.26,35.83
"2017-11-18 11:50:00",315060,0.713,152.5,1.981,97.9,34.40625,0,858.6302,0,9.72,3.072,344,4.661,5.96,5.587789,0.163,54.01,60.8,34.27,35.86
"2017-11-18 12:00:00",315061,0.739,150.4,1.935,97.6,38.3376,0,858.4681,0.5,9.77,3.071,352,4.659,5.957,6.042642,0.158,54.12,61.1,34.3,35.93
"2017-11-18 12:10:00",315062,0.893,165.7,2.032,97.6,39.61519,0.5,857.8676,0,9.57,3.073,295,4.658,5.956,6.232154,0.157,54.12,61.4,34.3,36
"2017-11-18 12:20:00",315063,0.897,157.8,2.147,96.7,51.68916,0,857.6379,0,9.86,3.069,333,4.657,5.955,8.127563,0.157,54.18,61.7,34.32,36.06
"2017-11-18 12:30:00",315064,1.007,159.6,2.232,95.3,42.5992,0,857.6063,0,9.43,3.073,291,4.673,5.955,6.599851,0.155,54.24,61.94,34.33,36.12
"2017-11-18 12:40:00",315065,0.735,152.5,2.266,94.6,33.70979,0,857.1723,0,9.63,3.071,306,4.701,5.958,5.314756,0.158,54.24,62.06,34.33,36.15
"2017-11-18 12:50:00",315066,0.633,149.7,2.345,95.7,73.31702,0,856.4833,0,10.04,3.066,278,4.647,5.961,11.6265,0.159,54.24,62.18,34.33,36.17
"2017-11-18 13:00:00",315067,0.58,151.8,2.609,95.1,108.0726,0,856.2747,0,11.2,3.053,251,4.586,5.96,16.87302,0.156,54.24,62.24,34.33,36.19
"2017-11-18 13:10:00",315068,0.089,186.1,2.861,93.5,63.18128,0,856.2599,0,11.25,3.052,256,4.575,5.956,9.135921,0.143,54.24,62.24,34.33,36.19
"2017-11-18 13:20:00",315069,0.159,225.1,2.817,95.1,32.86449,0,856.1546,0,11.1,3.054,261,4.572,5.962,4.495934,0.136,54.18,62.3,34.32,36.2
"2017-11-18 13:30:00",315070,0.408,156.8,2.671,95.5,36.22603,0,855.7311,0,11.17,3.054,273,4.57,5.979,5.056979,0.14,54.18,62.36,34.32,36.21
"2017-11-18 13:40:00",315071,0.196,125.8,2.675,95.7,26.97491,0,855.8259,0.5,10.87,3.056,244,4.57,5.995,3.927309,0.145,54.18,62.36,34.32,36.21
"2017-11-18 13:50:00",315072,0.071,106.7,2.738,94.7,26.80978,0,855.6047,0,11.13,3.053,267,4.57,6.007,3.900773,0.146,54.18,62.42,34.32,36.23
"2017-11-18 14:00:00",315073,0,0,2.778,95.1,23.38533,0,855.7859,0,10.85,3.056,244,4.57,6.019,3.191886,0.135,54.18,62.42,34.32,36.23
"2017-11-18 14:10:00",315074,0.013,32.26,2.738,97,21.73011,0,855.8681,0,11.15,3.053,255,4.57,6.036,2.918946,0.134,54.12,62.42,34.3,36.23
"2017-11-18 14:20:00",315075,0.015,1.409,2.734,97.9,17.00036,0,856.0114,0,11.3,3.052,261,4.57,6.034,2.194896,0.129,54.12,62.42,34.3,36.23
"2017-11-18 14:30:00",315076,0.092,21.95,2.694,99.5,19.39866,0,855.8639,0,11.1,3.054,262,4.57,6.03,2.581561,0.133,54.12,62.42,34.3,36.23
"2017-11-18 14:40:00",315077,0.115,109.1,2.667,100,25.98807,0,855.7016,0,11.17,3.054,268,4.57,6.014,3.351101,0.129,54.12,62.42,34.3,36.23
"2017-11-18 14:50:00",315078,0.228,124.6,2.601,100,33.19868,0,855.2992,0,11.12,3.054,257,4.57,5.983,4.348092,0.131,54.12,62.42,34.3,36.23
"2017-11-18 15:00:00",315079,0.23,114.5,2.693,100,48.7522,0,854.9263,0,11.02,3.054,258,4.57,5.967,6.379982,0.131,54.07,62.42,34.29,36.23
"2017-11-18 15:10:00",315080,0.331,71.15,2.814,100,47.30143,0,854.8568,0,11.14,3.054,256,4.57,5.95,6.080505,0.128,54.07,62.42,34.29,36.23
"2017-11-18 15:20:00",315081,0.08,125.6,2.748,100,38.14466,0,854.8568,0,10.95,3.055,245,4.57,5.94,4.749921,0.125,54.07,62.42,34.29,36.23
"2017-11-18 15:30:00",315082,0.159,344.3,2.738,100,25.42978,0,854.8041,0,11.27,3.052,268,4.57,5.924,3.127442,0.122,54.01,62.42,34.27,36.23
"2017-11-18 15:40:00",315083,0.021,295.6,2.718,100,16.11575,0,854.8568,0,11.23,3.052,274,4.57,5.892,1.793067,0.111,54.01,62.36,34.27,36.21
"2017-11-18 15:50:00",315084,0,0,2.718,100,10.02959,0,854.8568,0,11,3.055,263,4.57,5.883,1.042481,0.103,54.01,62.42,34.27,36.23
"2017-11-18 16:00:00",315085,0,0,2.724,100,8.527704,0,854.8568,0,10.65,3.058,247,4.57,5.87,0.8908471,0.104,54.01,62.36,34.27,36.21
"2017-11-18 16:10:00",315086,0.028,296.1,2.728,100,5.35881,0,854.8357,0,10.09,3.064,296,4.57,5.869,0.4814365,0.09,53.95,62.36,34.26,36.21
"2017-11-18 16:20:00",315087,0.254,320.8,2.602,100,6.333855,0.5,854.7135,0,9.98,3.067,376,4.57,5.869,0.7619585,0.12,53.95,62.36,34.26,36.21
"2017-11-18 16:30:00",315088,1.507,324.4,2.208,100,5.547529,0,854.4986,0,9.42,3.075,482,4.57,5.869,0.610325,0.109,53.95,62.36,34.26,36.21
"2017-11-18 16:40:00",315089,1.467,302.8,1.796,100,3.098124,0,854.3975,0.5,2.698,3.143,378,4.57,5.869,0.3601297,0.116,54.01,62.36,34.27,36.21
"2017-11-18 16:50:00",315090,0.943,313.3,1.558,100,0.5818812,0.5,854.3511,0,-30.47,3.475,201,4.57,5.869,0.03790839,0.027,54.01,62.36,34.27,36.21
"2017-11-18 17:00:00",315091,0.945,292.1,1.375,100,0,0,854.3511,0,1.694,3.155,258,4.57,5.891,0,0,54.01,62.36,34.27,36.21
"2017-11-18 17:10:00",315092,0.942,263.1,1.263,100,0,0,854.3511,0,-31.48,3.487,196,4.57,5.918,0.003790839,0,54.01,62.36,34.27,36.21
"2017-11-18 17:20:00",315093,0.387,293.3,1.146,100,0,0,854.3427,0,-31.3,3.486,248,4.574,5.933,0.007581678,0,54.01,62.36,34.27,36.21
"2017-11-18 17:30:00",315094,0.899,279.7,0.993,100,0,0,854.2542,0,-30.09,3.475,200,4.603,5.885,0.01137252,0,54.07,62.42,34.29,36.23
"2017-11-18 17:40:00",315095,0.778,283.1,0.813,100,0,0,854.3511,0,-26.65,3.442,209,4.624,5.835,0.003790839,0,54.07,62.42,34.29,36.23
"2017-11-18 17:50:00",315096,1.113,305.4,0.685,100,0,0,854.2479,0,11.1,3.065,288,4.651,5.798,0.01895419,0,54.07,62.42,34.29,36.23
"2017-11-18 18:00:00",315097,0.518,306.2,0.563,100,0,0,854.3448,0,11.3,3.065,278,4.629,5.789,0.04549006,0,54.07,62.42,34.29,36.23
"2017-11-18 18:10:00",315098,0.712,298.7,0.339,100,0,0,854.4965,0,11.4,3.064,278,4.579,5.782,0.003790839,0,54.07,62.42,34.29,36.23
"2017-11-18 18:20:00",315099,0.222,192.8,0.382,100,0,0,854.5955,0,11.2,3.065,262,4.537,5.782,0.1781694,0,54.01,62.42,34.27,36.23
"2017-11-18 18:30:00",315100,0.187,353.8,0.294,100,0,0,854.6039,0,11.14,3.067,269,4.508,5.788,0.07202724,0,54.01,62.42,34.27,36.23
"2017-11-18 18:40:00",315101,0.271,315.2,0.139,100,0,0,854.7556,0,11.18,3.068,270,4.509,5.815,0.04928329,0,54.01,62.42,34.27,36.23
"2017-11-18 18:50:00",315102,0.391,320.3,0.021,100,0,0,854.8673,0,11.08,3.069,264,4.505,5.829,0.007582218,0,54.01,62.42,34.27,36.23
"2017-11-18 19:00:00",315103,0.362,304.5,-0.088,100,0,0,854.8568,0,11.02,3.071,252,4.505,5.854,0,0,54.01,62.42,34.27,36.23
"2017-11-18 19:10:00",315104,0.391,274.1,-0.224,100,0,0,855.0527,0,11.39,3.067,255,4.512,5.882,0,0,54.01,62.42,34.27,36.23
"2017-11-18 19:20:00",315105,0.44,346.6,-0.384,100,0,0,855.1581,0,10.96,3.073,240,4.521,5.904,0,0,54.01,62.36,34.27,36.21
"2017-11-18 19:30:00",315106,0.421,291.6,-0.585,100,0,0,855.2462,0,10.75,3.077,261,4.527,5.91,0,0,53.95,62.36,34.26,36.21
"2017-11-18 19:40:00",315107,0.619,275.1,-0.709,100,0,0,855.369,0,10.19,3.083,239,4.542,5.925,0,0,53.95,62.36,34.26,36.21
"2017-11-18 19:50:00",315108,0.739,311.7,-0.91,100,0,0,855.5035,0,9.38,3.092,229,4.566,5.943,0,0,53.95,62.36,34.26,36.21
"2017-11-18 20:00:00",315109,0.837,309.6,-1.095,100,0,0,855.5859,0.5,9.28,3.093,228,4.584,5.951,0,0,53.95,62.36,34.26,36.21
"2017-11-18 20:10:00",315110,0.622,337.6,-1.218,100,0,0,855.6061,0,10.95,3.078,254,4.622,5.951,0,0,53.9,62.3,34.25,36.2
"2017-11-18 20:20:00",315111,0.861,343.8,-1.459,100,0,0,855.7613,0,-30.69,3.497,315,4.65,5.951,0,0,53.9,62.3,34.25,36.2
"2017-11-18 20:30:00",315112,1.013,292.5,-1.649,100,0,0,855.8184,0,9.57,3.094,312,4.651,5.919,0.0644662,0,53.84,62.3,34.23,36.2
"2017-11-18 20:40:00",315113,0.807,327.2,-1.823,100,0,0,856.1116,0,9.12,3.1,273,4.594,5.852,0.06825834,0,53.9,62.24,34.25,36.19
"2017-11-18 20:50:00",315114,0.636,308.8,-1.974,100,0,0,856.2748,0,11.11,3.08,250,4.58,5.838,0.1061796,0,53.84,62.3,34.23,36.2
"2017-11-18 21:00:00",315115,0.64,288.9,-2.018,100,0,0,856.2842,0,-27.75,3.47,257,4.574,5.842,0.2199436,0,53.84,62.24,34.23,36.19
"2017-11-18 21:10:00",315116,0.686,286.5,-2.17,100,0,0,856.4524,0,-27.94,3.473,213,4.573,5.865,0.1365167,0,53.78,62.24,34.22,36.19
"2017-11-18 21:20:00",315117,0.349,296.6,-2.157,100,0,0,856.4653,0,2.445,3.169,242,4.573,5.869,0.2161514,0,53.78,62.18,34.22,36.17
"2017-11-18 21:30:00",315118,0.402,322.3,-2.348,100,0,0,856.5017,0,2.644,3.167,263,4.573,5.871,0.1403088,0,53.78,62.18,34.22,36.17
"2017-11-18 21:40:00",315119,0.604,308,-2.563,100,0,0,856.7,0,3.69,3.158,269,4.568,5.871,0.06825834,0,53.73,62.18,34.21,36.17
"2017-11-18 21:50:00",315120,0.667,307.2,-2.617,100,0,0,856.8538,0,2.398,3.173,238,4.573,5.871,0.1858144,0,53.73,62.18,34.21,36.17
"2017-11-18 22:00:00",315121,0.51,334.9,-2.854,100,0,0.5,856.9634,0,3.294,3.164,254,4.541,5.871,0.09480325,0,53.73,62.12,34.21,36.16
"2017-11-18 22:10:00",315122,0.631,335.7,-2.963,100,0,0,856.9845,0,2.972,3.168,240,4.501,5.869,0.1213482,0,53.67,62.12,34.19,36.16
"2017-11-18 22:20:00",315123,0.856,277.1,-3.051,99.6,0,0,856.9782,0,3.643,3.161,262,4.501,5.871,0.2502806,0,53.67,62.06,34.19,36.15
"2017-11-18 22:30:00",315124,0.265,2.823,-3.13,99.2,0,0,856.9866,0,3.793,3.161,260,4.52,5.858,0.2768255,0,53.67,62.06,34.19,36.15
"2017-11-18 22:40:00",315125,0.4,278.8,-3.164,98.3,0,0,857.111,0,3.147,3.167,247,4.528,5.823,0.3564602,0,53.67,62.06,34.19,36.15
"2017-11-18 22:50:00",315126,0.804,300,-3.351,97.3,0,0,857.3365,0,3.05,3.17,247,4.533,5.786,0.2123593,0,53.67,62,34.19,36.13
"2017-11-18 23:00:00",315127,0.606,289.3,-3.563,98.5,0,0,857.2247,0,3.25,3.169,241,4.536,5.783,0.1706459,0,53.61,62,34.18,36.13
"2017-11-18 23:10:00",315128,0.702,318.8,-3.515,98.6,0,0,857.2206,0,2.43,3.177,238,4.541,5.774,0.2654491,0,53.56,62,34.17,36.13
"2017-11-18 23:20:00",315129,0.4,337.1,-3.632,97.7,0,0,857.2627,0,2.653,3.174,247,4.549,5.771,0.2502806,0,53.56,62,34.17,36.13
"2017-11-18 23:30:00",315130,0.57,307.7,-3.735,98,0,0,857.4187,0,3.252,3.17,244,4.554,5.779,0.1933987,0,53.56,61.94,34.17,36.12
"2017-11-18 23:40:00",315131,0.638,288.2,-3.902,98.2,0,0,857.3913,0,3.053,3.172,236,4.57,5.779,0.2199436,0,53.56,61.88,34.17,36.11
"2017-11-18 23:50:00",315132,0.777,300.8,-3.934,96.6,0,0,857.3513,0,3.252,3.17,240,4.571,5.785,0.2806177,0,53.56,61.88,34.17,36.11
